{"data":{"norad_id":64211,"intl_designator":"2025-117J","name":"STARLINK-34258","alt_names":[],"object_type":"PAYLOAD","status":"ACTIVE","operator":null,"country":"US","launch_date":"2025-05-31","launch_site_code":"AFWTR","launch_vehicle":null,"mission":null,"orbit_class":"UNKNOWN","rcs_meters":null,"size_class":null,"mass_kg":null,"dimensions":null,"purposes":["comms"],"wikipedia_slug":null,"has_3d_model":false,"image_url":null,"decayed_at":null,"tle_current":{"epoch":"2026-09-20T14:11:17.513088Z","epoch_age_seconds":132493,"freshness":"FRESH","line1":"1 64211U 25117J   26263.59117492  .00009089  00000+0  27984-3 0  9995","line2":"2 64211  53.1579 210.9268 0001136  95.2599 264.8534 15.34397321 74410","mean_motion":15.34397321,"eccentricity":0.0001136,"inclination_deg":53.1579,"raan_deg":210.9268,"arg_perigee_deg":95.2599,"mean_anomaly_deg":264.8534,"bstar":0.00027984,"rev_number":7441,"period_min":93.84792193599,"perigee_km":461.93408241543,"apogee_km":463.4883231271,"semimajor_km":6840.8482027713,"source":"CELESTRAK","updated_at":"2026-09-21T09:00:35.271596Z"}}}